This demonstration page uses our WeatherBlox Daily Observations layout. Learn more.

Left ArrowRight Arrow

34.16533, -84.80231

Hourly Observations for March 2, 2021

Temp ( °F °C ) Dew Point ( °F °C ) Humidity (%) Winds ( mph kmh ) Pressure ( in mb ) Visibility ( mi km ) Precip ( " mm )
12:53 am 00:53 Clear 46 7.8 32 0 58 58 N 8 13 30.19 1022 10 16 0.00 0.00
1:53 am 01:53 Clear 46 7.8 31 -0.6 56 56 VRB 6 9 30.22 1024 10 16 0.00 0.00
2:53 am 02:53 Clear 44 6.7 31 -0.6 60 60 N 5 7 30.20 1023 10 16 0.00 0.00
3:53 am 03:53 Clear 44 6.7 31 -0.6 60 60 VRB 7 11 30.19 1022 10 16 0.00 0.00
4:53 am 04:53 Clear 43 6.1 29 -1.7 58 58 N 5 7 30.19 1022 10 16 0.00 0.00
5:53 am 05:53 Mostly Clear 43 6.1 30 -1.1 60 60 N 7 11 30.17 1022 10 16 0.00 0.00
6:53 am 06:53 Cloudy 43 6.1 30 -1.1 60 60 N 6 9 30.20 1023 10 16 0.00 0.00
7:53 am 07:53 Partly Cloudy 43 6.1 30 -1.1 60 60 NNE 3 6 30.19 1022 10 16 0.00 0.00
8:53 am 08:53 Mostly Cloudy 43 6.1 30 -1.1 60 60 VRB 3 6 30.25 1024 10 16 0.00 0.00
9:53 am 09:53 Mostly Cloudy 43 6.1 30 -1.1 60 60 Calm 30.25 1025 10 16 0.00 0.00
10:53 am 10:53 Mostly Cloudy 44 6.7 32 0 63 63 N 3 6 30.26 1025 10 16 0.00 0.00
11:53 am 11:53 Mostly Sunny 45 7.2 32 0 61 61 NNE 3 6 30.25 1024 10 16 0.00 0.00
12:53 pm 12:53 Sunny 47 8.3 33 0.6 59 59 Calm 30.23 1024 10 16 0.00 0.00
1:53 pm 13:53 Sunny 49 9.4 33 0.6 55 55 E 5 7 30.16 1021 10 16 0.00 0.00
2:53 pm 14:53 Sunny 51 10.6 30 -1.1 44 44 ENE 7 11 30.11 1020 10 16 0.00 0.00
3:53 pm 15:53 Mostly Cloudy 51 10.6 29 -1.7 43 43 ENE 8 13 30.12 1020 10 16 0.00 0.00
4:53 pm 16:53 Cloudy 51 10.6 29 -1.7 43 43 VRB 6 9 30.11 1020 10 16 0.00 0.00
5:53 pm 17:53 Cloudy 50 10 29 -1.7 44 44 E 5 7 30.11 1020 10 16 0.00 0.00
6:53 pm 18:53 Cloudy 49 9.4 29 -1.7 46 46 ENE 5 7 30.13 1020 10 16 0.00 0.00
7:53 pm 19:53 Cloudy 44 6.7 39 3.9 83 83 Calm 30.14 1021 10 16 0.02 0.51
8:53 pm 20:53 Cloudy 45 7.2 39 3.9 80 80 Calm 30.12 1020 10 16 0.00 0.00
9:53 pm 21:53 Cloudy 44 6.7 38 3.3 79 79 SSE 5 7 30.11 1020 10 16 0.01 0.25
10:53 pm 22:53 Cloudy 43 6.1 38 3.3 82 82 NE 5 7 30.11 1020 10 16 0.03 0.76
11:53 pm 23:53 Cloudy 43 6.1 37 2.8 80 80 ENE 6 9 30.09 1019 10 16 0.02 0.51

Powered by AerisWeather